• En España
  • Lista de países
  • Para 7 días
  • Temperatura del agua
  • Mapa Satelital
  • El tiempo en el mapa
  • Informadores
  • user-avatar
    Iniciar sesión

    Tiempo cada hora Lezhe

    Hoy, 16 Octubre, Martes

    Tiempo Temperatura Precipitaciones Viento Presión Humedad
    00:00 +16°C° 0 mm 1 mps 741 mmHg 64%
    01:00 +16°C° 0 mm 2 mps 741 mmHg 65%
    02:00 +16°C° 0 mm 2 mps 741 mmHg 65%
    03:00 +16°C° 0 mm 2 mps 741 mmHg 65%
    04:00 +16°C° 0 mm 2 mps 740 mmHg 66%
    05:00 +16°C° 0 mm 2 mps 741 mmHg 65%
    06:00 +16°C° 0 mm 2 mps 741 mmHg 65%
    07:00 +17°C° 0 mm 2 mps 741 mmHg 64%
    08:00 +19°C° 0 mm 2 mps 741 mmHg 57%
    09:00 +22°C° 0 mm 1 mps 741 mmHg 50%
    10:00 +25°C° 0 mm 1 mps 741 mmHg 43%
    11:00 +25°C° 0 mm 1 mps 741 mmHg 42%
    12:00 +26°C° 0 mm 2 mps 741 mmHg 40%
    13:00 +26°C° 0 mm 2 mps 741 mmHg 39%
    14:00 +26°C° 0 mm 2 mps 740 mmHg 42%
    15:00 +25°C° 0 mm 2 mps 740 mmHg 46%
    16:00 +24°C° 0 mm 2 mps 740 mmHg 49%
    17:00 +22°C° 0 mm 1 mps 740 mmHg 55%
    18:00 +20°C° 0 mm 1 mps 740 mmHg 61%
    19:00 +17°C° 0 mm 0 mps 740 mmHg 67%
    20:00 +18°C° 0 mm 1 mps 740 mmHg 67%
    21:00 +18°C° 0 mm 1 mps 741 mmHg 66%
    22:00 +18°C° 0 mm 1 mps 741 mmHg 66%
    23:00 +18°C° 0 mm 1 mps 741 mmHg 66%

    Mañana, 17 Octubre, Miércoles

    Tiempo Temperatura Precipitaciones Viento Presión Humedad
    00:00 +16°C° 0 mm 1 mps 740 mmHg 65%
    01:00 +16°C° 0 mm 1 mps 740 mmHg 65%
    02:00 +16°C° 0 mm 2 mps 740 mmHg 66%
    03:00 +16°C° 0 mm 2 mps 740 mmHg 66%
    04:00 +16°C° 0 mm 2 mps 740 mmHg 66%
    05:00 +16°C° 0 mm 2 mps 740 mmHg 66%
    06:00 +16°C° 0 mm 2 mps 740 mmHg 65%
    07:00 +17°C° 0 mm 2 mps 740 mmHg 64%
    08:00 +19°C° 0 mm 2 mps 740 mmHg 56%
    09:00 +23°C° 0 mm 1 mps 740 mmHg 49%
    10:00 +25°C° 0 mm 1 mps 739 mmHg 41%
    11:00 +26°C° 0 mm 2 mps 739 mmHg 39%
    12:00 +26°C° 0 mm 2 mps 739 mmHg 37%
    13:00 +27°C° 0 mm 2 mps 738 mmHg 35%
    14:00 +26°C° 0 mm 2 mps 738 mmHg 39%
    15:00 +25°C° 0 mm 2 mps 738 mmHg 42%
    16:00 +25°C° 0 mm 2 mps 738 mmHg 46%
    17:00 +23°C° 0 mm 2 mps 738 mmHg 50%
    18:00 +21°C° 0 mm 1 mps 738 mmHg 54%
    19:00 +19°C° 0 mm 1 mps 738 mmHg 58%
    20:00 +19°C° 0 mm 1 mps 738 mmHg 57%
    21:00 +19°C° 0 mm 1 mps 738 mmHg 56%
    22:00 +18°C° 0 mm 1 mps 738 mmHg 55%
    23:00 +18°C° 0 mm 1 mps 738 mmHg 55%

    Pasado mañana, 18 Octubre, Jueves

    Tiempo Temperatura Precipitaciones Viento Presión Humedad
    00:00 +17°C° 0 mm 2 mps 738 mmHg 55%
    01:00 +16°C° 0 mm 2 mps 738 mmHg 55%
    02:00 +16°C° 0 mm 2 mps 738 mmHg 55%
    03:00 +16°C° 0 mm 2 mps 738 mmHg 56%
    04:00 +16°C° 0 mm 2 mps 738 mmHg 56%
    05:00 +16°C° 0 mm 2 mps 738 mmHg 56%
    06:00 +16°C° 0 mm 2 mps 738 mmHg 56%
    07:00 +17°C° 0 mm 2 mps 738 mmHg 57%
    08:00 +19°C° 0 mm 2 mps 738 mmHg 50%
    09:00 +23°C° 0 mm 1 mps 738 mmHg 43%
    10:00 +25°C° 0 mm 1 mps 738 mmHg 36%
    11:00 +26°C° 0 mm 1 mps 737 mmHg 34%
    12:00 +26°C° 0 mm 2 mps 737 mmHg 33%
    13:00 +27°C° 0 mm 2 mps 737 mmHg 31%
    14:00 +26°C° 0 mm 2 mps 737 mmHg 35%
    15:00 +25°C° 0 mm 2 mps 737 mmHg 39%
    16:00 +25°C° 0 mm 2 mps 737 mmHg 42%
    17:00 +23°C° 0 mm 2 mps 737 mmHg 46%
    18:00 +21°C° 0 mm 1 mps 737 mmHg 50%
    19:00 +19°C° 0 mm 1 mps 737 mmHg 54%
    20:00 +19°C° 0 mm 1 mps 738 mmHg 54%
    21:00 +19°C° 0 mm 1 mps 738 mmHg 53%
    22:00 +17°C° 0 mm 2 mps 738 mmHg 53%
    23:00 +18°C° 0 mm 1 mps 738 mmHg 53%

    19 Octubre, Viernes

    Tiempo Temperatura Precipitaciones Viento Presión Humedad
    00:00 +18°C° 0 mm 1 mps 738 mmHg 53%
    01:00 +18°C° 0 mm 1 mps 738 mmHg 53%
    02:00 +16°C° 0 mm 1 mps 738 mmHg 53%
    03:00 +16°C° 0 mm 2 mps 738 mmHg 54%
    04:00 +16°C° 0 mm 2 mps 738 mmHg 55%
    05:00 +16°C° 0 mm 2 mps 738 mmHg 55%
    06:00 +16°C° 0 mm 2 mps 738 mmHg 55%
    07:00 +17°C° 0 mm 2 mps 738 mmHg 55%
    08:00 +19°C° 0 mm 2 mps 738 mmHg 48%
    09:00 +23°C° 0 mm 2 mps 739 mmHg 42%
    10:00 +25°C° 0 mm 1 mps 739 mmHg 36%
    11:00 +26°C° 0 mm 2 mps 739 mmHg 35%
    12:00 +26°C° 0 mm 2 mps 738 mmHg 34%
    13:00 +27°C° 0 mm 3 mps 738 mmHg 33%
    14:00 +26°C° 0 mm 3 mps 738 mmHg 36%
    15:00 +25°C° 0 mm 3 mps 738 mmHg 40%
    16:00 +24°C° 0 mm 3 mps 738 mmHg 44%
    17:00 +23°C° 0 mm 2 mps 738 mmHg 48%
    18:00 +20°C° 0 mm 2 mps 739 mmHg 51%
    19:00 +18°C° 0 mm 2 mps 739 mmHg 55%
    20:00 +18°C° 0 mm 2 mps 739 mmHg 56%
    21:00 +18°C° 0 mm 2 mps 739 mmHg 57%
    22:00 +17°C° 0 mm 2 mps 740 mmHg 57%
    23:00 +17°C° 0 mm 2 mps 740 mmHg 60%

    20 Octubre, Sábado

    Tiempo Temperatura Precipitaciones Viento Presión Humedad
    00:00 +17°C° 0 mm 2 mps 740 mmHg 62%
    01:00 +16°C° 0 mm 2 mps 740 mmHg 64%
    02:00 +16°C° 0 mm 2 mps 739 mmHg 67%
    03:00 +16°C° 0 mm 2 mps 739 mmHg 69%
    04:00 +15°C° 0 mm 2 mps 739 mmHg 71%
    05:00 +16°C° 0 mm 2 mps 740 mmHg 70%
    06:00 +16°C° 0 mm 2 mps 740 mmHg 69%
    07:00 +16°C° 0 mm 2 mps 740 mmHg 68%
    08:00 +19°C° 0 mm 2 mps 740 mmHg 59%
    09:00 +21°C° 0 mm 2 mps 740 mmHg 50%
    10:00 +24°C° 0 mm 2 mps 740 mmHg 42%
    11:00 +25°C° 0 mm 2 mps 740 mmHg 39%
    12:00 +26°C° 0 mm 2 mps 739 mmHg 37%
    13:00 +26°C° 0 mm 3 mps 739 mmHg 35%
    14:00 +26°C° 0 mm 3 mps 739 mmHg 38%
    15:00 +25°C° 0 mm 3 mps 739 mmHg 41%
    16:00 +24°C° 0 mm 3 mps 738 mmHg 44%
    17:00 +21°C° 0 mm 3 mps 739 mmHg 47%
    18:00 +20°C° 0 mm 3 mps 739 mmHg 51%
    19:00 +18°C° 0 mm 3 mps 739 mmHg 55%
    20:00 +17°C° 0 mm 3 mps 739 mmHg 56%
    21:00 +17°C° 0 mm 2 mps 739 mmHg 57%
    22:00 +16°C° 0 mm 2 mps 740 mmHg 57%
    23:00 +16°C° 0 mm 3 mps 740 mmHg 60%

    21 Octubre, Domingo

    Tiempo Temperatura Precipitaciones Viento Presión Humedad
    00:00 +16°C° 0 mm 3 mps 739 mmHg 62%
    01:00 +14°C° 0 mm 3 mps 739 mmHg 64%
    02:00 +14°C° 0 mm 3 mps 739 mmHg 65%
    03:00 +14°C° 0 mm 3 mps 739 mmHg 66%
    04:00 +14°C° 0 mm 3 mps 739 mmHg 67%
    05:00 +14°C° 0 mm 3 mps 739 mmHg 66%
    06:00 +14°C° 0 mm 3 mps 739 mmHg 65%
    07:00 +16°C° 0 mm 3 mps 739 mmHg 64%
    08:00 +16°C° 0.5 mm 3 mps 739 mmHg 65%
    09:00 +16°C° 0.5 mm 3 mps 739 mmHg 67%
    10:00 +16°C° 0.5 mm 3 mps 739 mmHg 68%
    11:00 +17°C° 0.3 mm 3 mps 739 mmHg 64%
    12:00 +18°C° 0.3 mm 3 mps 739 mmHg 60%
    13:00 +19°C° 0.3 mm 2 mps 738 mmHg 56%
    14:00 +19°C° 0 mm 2 mps 738 mmHg 57%
    15:00 +18°C° 0 mm 2 mps 738 mmHg 57%
    16:00 +18°C° 0 mm 2 mps 738 mmHg 57%
    17:00 +17°C° 0 mm 2 mps 738 mmHg 61%
    18:00 +15°C° 0 mm 2 mps 738 mmHg 66%
    19:00 +13°C° 0 mm 3 mps 738 mmHg 70%
    20:00 +13°C° 0 mm 3 mps 738 mmHg 70%
    21:00 +12°C° 0 mm 3 mps 738 mmHg 71%
    22:00 +11°C° 0 mm 4 mps 738 mmHg 71%
    23:00 +11°C° 0 mm 4 mps 737 mmHg 69%
    Mostrar más